www.pogodaiklimat.ru

Погода и климат >> Архив погоды >> Россия >> Хабаровский край >> Георгиевка


ПОГОДА в Георгиевке

  • Прогноз погоды в Георгиевке
  • Монитор погоды в Георгиевке
  • Климат города

АРХИВ ПОГОДЫ в Георгиевке

Время (UTC), дата Ветер
(напр.,м/с)
 
Видим.   Явления Облачность Т
(С)
Тd
(С)
f
(%)
Тe
(С)
Тes
(С)
Комфортность P
(гПа)
Po
(гПа)
Тmin
(С)
Tmax
(С)
R
(мм)
R24
(мм)
S
(см)
03 14.05 С 1 20 км 4/0
[Ci]
+18.0 +6.4 47 +19 +38 опасность
простуды
1005.0 996.8
06 14.05 С 2 20 км 8/0
[Ci]
+21.4 +3.2 30 +21 +30 комфорт 1002.6 994.5
09 14.05 СВ 2 20 км 9 баллов +20.3 +3.9 34 +21 +22 комфорт 1002.8 994.7 +22.0
12 14.05 СВ 1 10 км 10/10 600 м
[Cb cap]
+15.5 +5.8 52 +16 +16 1001.8 993.5
15 14.05 СВ 2 10 км 10/10 600 м
[Cb cap]
+12.9 +5.7 62 +12 +12 1000.0 991.7
18 14.05 С 2 10 км 10/10 600 м
[]
+13.3 +0.7 42 +13 +13 999.1 990.8
21 14.05 В 1
{13}
20 км {гроза, ливн. осадки} 8/0
[Ci ing]
+12.3 +9.7 84 +12 +14 1001.0 992.6 +10.8 0.9
00 15.05 З 4 20 км 7 баллов +19.8 +12.3 62 +21 +24 комфорт 1002.8 994.7
03 15.05 З 3 20 км 6/4 600 м
[Cb cap Ci ing]
+22.5 +11.5 50 +25 +33 комфорт 1002.1 994.1
06 15.05 З 5 20 км 6/3 600 м
[Cb cap Ci ing]
+25.1 +3.7 25 +24 +28 комфорт 1002.4 994.4
09 15.05 З 2 20 км 10 баллов +22.7 +6.0 34 +23 +23 комфорт 1002.7 994.7 +25.2
12 15.05 штиль 0 10 км 4/0
[Ac lent]
+14.9 +9.8 72 +15 +15 1002.8 994.5
15 15.05 В 1 10 км 10/10 600 м
[Cb cap]
+13.1 +10.0 81 +13 +13 1002.0 993.7
18 15.05 штиль 0 4000 м слабый ливневой дождь 10/10 600 м
[Cb cap]
+12.5 +10.5 88 +12 +12 1000.4 992.1
21 15.05 В 1 4000 м слабый ливневой дождь 10 баллов +11.7 +10.9 95 +11 +11 1000.3 992.0 +11.7 1
00 16.05 СВ 3 4000 м слабый ливневой дождь 10 баллов +11.6 +11.1 97 +10 +10 996.3 988.0 +11.3
03 16.05 С 2 20 км {ливн. осадки} 10/10 600 м
[Cb cap]
+12.4 +11.7 95 +11 +11 996.0 987.7
06 16.05 С 3 20 км {снег} 10/10 600 м
[Cb cap]
+13.0 +11.2 89 +12 +12 996.3 988.1
09 16.05 С 4 20 км 10 баллов +11.3 +8.9 85 +9 +9 1000.3 992.0 +13.1 28
12 16.05 С 3 10 км 9 баллов +10.8 +5.8 71 +9 +9 1003.1 994.7
15 16.05 СЗ 1 10 км ясно +8.5 +4.9 78 +8 +8 1005.3 996.8
18 16.05 СЗ 1 10 км ясно +7.6 +4.4 80 +7 +7 1008.0 999.4
21 16.05 СВ 1 20 км ясно +8.6 +5.0 78 +8 +10 1011.2 1002.7 +6.3
00 17.05 СВ 2 20 км 3/0
[Ci fib]
+13.0 +5.8 62 +12 +23 опасность
простуды
1011.7 1003.3
03 17.05 В 1 20 км 8/5 600 м
[Cu med, cong Ci fib]
+17.1 +3.8 41 +18 +27 1012.2 1003.9
06 17.05 ЮВ 2 20 км 8/8 600 м
[Cb cap]
+18.2 +5.2 42 +19 +21 1011.2 1003.0
09 17.05 штиль 0 20 км 9 баллов +17.8 +6.3 47 +18 +18 1012.3 1004.0 +19.1
12 17.05 штиль 0 10 км 4/0
[Ac lent]
+10.2 +8.8 91 +9 +9 1011.7 1003.2
15 17.05 штиль 0 10 км ясно +7.3 +6.8 97 +6 +6 1011.5 1003.0
18 17.05 штиль 0 10 км 3/0
[Ac lent]
+5.4 +4.6 95 +4 +4 1011.5 1002.9
21 17.05 В 1 20 км 7 баллов +7.2 +4.7 84 +6 +7 1012.6 1004.0 +4.9
00 18.05 Ю 3 20 км 3/0
[Ac lent]
+16.2 +4.9 47 +16 +23 1012.1 1003.8
03 18.05 ЮВ 2 20 км 3/3 600 м
[Cu hum]
+19.3 +4.8 38 +20 +33 опасность
простуды
1011.0 1002.8
06 18.05 Ю 2 20 км 8/8 600 м
[Cb cap]
+21.1 +4.6 34 +21 +24 комфорт 1009.9 1001.8
09 18.05 ЮЗ 3 20 км 2 балла +19.6 +7.7 46 +21 +22 комфорт 1010.9 1002.7 +21.4
12 18.05 штиль 0 10 км ясно +12.4 +8.8 79 +12 +12 1011.4 1003.0
15 18.05 Ю 1 10 км ясно +11.0 +8.2 83 +11 +11 1012.6 1004.1
18 18.05 ЮВ 1 10 км 4/0
[Ac lent]
+7.5 +6.8 95 +6 +6 1013.3 1004.8
21 18.05 ЮВ 1 20 км ясно +10.0 +7.4 84 +10 +11 1015.2 1006.7 +6.6
00 19.05 З 2 20 км ясно +17.5 +9.2 58 +18 +29 1014.4 1006.1
03 19.05 ЮЗ 1 20 км 6/6 600 м
[Cu hum]
+21.3 +6.7 39 +22 +30 комфорт 1014.6 1006.4
06 19.05 Ю 1 20 км 1/1 600 м
[Cu hum]
+23.4 +5.5 31 +24 +35 комфорт 1014.4 1006.3
09 19.05 З 2 20 км 2 балла +23.6 +6.8 34 +24 +25 комфорт 1016.1 1008.0 +24.0
12 19.05 штиль 0 10 км ясно +13.2 +9.7 79 +13 +13 1016.4 1008.0
15 19.05 штиль 0 10 км ясно +8.8 +8.2 96 +8 +8 1018.1 1009.6
18 19.05 В 1 10 км 3/0
[Ac lent]
+7.5 +7.0 97 +6 +6 1018.3 1009.7
21 19.05 В 1 20 км 7 баллов +9.7 +7.8 88 +9 +10 1020.6 1012.0 +6.5
00 20.05 Ю 1 20 км 3/0
[Ci fib]
+20.5 +10.3 52 +23 +36 комфорт 1018.7 1010.5
03 20.05 З 4 20 км 3/0
[Ci fib]
+25.6 +5.3 27 +25 +36 комфорт 1017.1 1009.1
06 20.05 ЮЗ 3 20 км 1/0
[Ci fib]
+28.0 +6.9 26 +27 +36 жарко 1015.5 1007.5
09 20.05 ЮЗ 2 20 км 9 баллов +25.5 +5.1 27 +25 +25 комфорт 1016.1 1008.0 +28.2
12 20.05 ЮЗ 1 10 км 9/0
[Cs]
+16.5 +10.1 66 +17 +17 1015.2 1006.9
15 20.05 штиль 0 10 км ясно +14.0 +8.6 70 +14 +14 1015.1 1006.7
18 20.05 штиль 0 10 км 3/0
[Ac lent]
+9.5 +8.9 96 +9 +9 1015.3 1006.7
21 20.05 штиль 0 20 км 7 баллов +14.2 +8.8 70 +14 +15 1016.4 1008.0 +9.4

 

Местоположение метеостанции Георгиевка (Хабаровский край, Россия): широта 47.95 долгота 135.20 высота над уровнем моря 70 м.

В архиве по умолчанию представлена погода в Георгиевке за последнюю неделю. Архивные данные за месяц целиком и за предыдущие месяцы, начиная с января 2011 года, Вы можете получить, выбрав интересующий диапазон дат из раскрывающегося списка и нажав кнопку "Ввод!".


*Определитесь, кто Вы:
робот инопланетянин человек

Внимание! Время в таблицах - всемирное. Для получения местного времени необходимо прибавить поправку, которая в Георгиевке равна 10 ч.

Смотрите также архив погоды в соседних городах и на ближайших метеорологических станциях:

Погода в Оборе (Хабаровский край, Россия) (34 км)
Погода в Бичевой (Хабаровский край, Россия) (36 км)
Погода в Бычихе (Хабаровский край, Россия) (48 км)
Погода в Хабаровске Аэр. Большой (Хабаровский край, Россия) (56 км)
Погода в Хабаровске 21 км (Хабаровский край, Россия) (59 км)
Погода в Вяземском (Хабаровский край, Россия) (61 км)
Погода в Князе-Волконском (Хабаровский край, Россия) (62 км)
Погода в Хабаровске АМС (Хабаровский край, Россия) (62 км)
Погода в Хабаровске Агромет (Хабаровский край, Россия) (64 км)
Погода в Хабаровске (Хабаровский край, Россия) (64 км)

Пояснения к столбцам:

Ветер - указаны скорость ветра в м/с - средняя за 10 мин, порывы в срок и между сроками (в фигурных скобках) и направление, откуда дует ветер: С - северный, СВ - северо-восточный, В - восточный, ЮВ - юго-восточный, Ю - южный, ЮЗ - юго-западный, З - западный, СЗ - северо-западный.
Видимость - горизонтальная дальность видимости в метрах или километрах. При видимости от 1 до 10 км при отсутствии осадков обычно наблюдается дымка, при ухудшении видимости до 1 км и менее - туман. В сухую погоду видимость может ухудшаться дымом, пылью или мглою.
Явления - указаны атмосферные явления, наблюдавшиеся в срок или в последний час перед сроком; фигурными скобками обозначены явления, наблюдавшиеся между сроками (за 1-3 часа до срока); квадратными скобками обозначены град или гололедные отложения с указанием их диаметра в мм.
Облачность - указаны через наклонную черту общая и нижняя облачность в баллах и высота нижней границы облаков в метрах; квадратными скобками обозначены формы облаков: Ci - перистые, Cs - перисто-слоистые, Cc - перисто-кучевые, Ac - высококучевые, As - высокослоистые, Sc - слоисто-кучевые, Ns - слоисто-дождевые, Cu - кучевые, Cb - кучево-дождевые. Подробнее классификацию облаков см. в Атласе облаков (PDF).
T - Температура воздуха - температура, измеренная на высоте 2 м над землей.
Td - Температура точки росы - температура, при понижении до которой содержащийся в воздухе водяной пар достигнет насыщения.
f - Относительная влажность воздуха - влажноcть воздуха, измеренная на высоте 2 м над землей.
Te - Эффективная температура - температура, которую ощущает одетый по сезону человек в тени. Характеристика душности погоды. При расчете учитывается влияние влажности воздуха и скорости ветра на теплоощущения человека.
Tes - Эффективная температура на солнце - температура, которую ощущает человек, с поправкой на солнечный нагрев. Характеристика знойности погоды. Зависит от высоты солнца над горизонтом, облачности и скорости ветра. Ночью, в пасмурную погоду, а также при ветре 12 м/с и более поправка равна нулю.
P - Атмосферное давление - приведенное к уровню моря атмосферное давление.
Po - Атмосферное давление - измеренное на уровне метеостанции атмосферное давление.
Tmin - Минимальная температура - минимум температуры воздуха на высоте 2 м над землей.
Tmax - Максимальная температура - максимум температуры воздуха на высоте 2 м над землей.
R - Количество осадков - Количество выпавших осадков за период времени, мм. При наведении курсора мыши на число - период времени, за который выпало указанное количество осадков.
R24 - Количество осадков - Количество выпавших осадков за 24 часа, мм.
S - Снежный покров - Высота снежного покрова, см. При наведении курсора мыши на число - состояние снежного покрова и степень покрытия местности в баллах.